• In Romania
  • List of Countries
  • For 7 days
  • Water Temperature
  • Satellite Maps
  • Weather Map
  • Weather Widgets
  • user-avatar
    Login

    Hourly Weather Rovinj

    Today, 20 October, Friday

    Time Temperature Precipitation Wind Pressure Humidity
    00:00 +15°C° 0 mm 1 mps 762 mmHg 82%
    01:00 +15°C° 0 mm 1 mps 762 mmHg 78%
    02:00 +15°C° 0 mm 1 mps 762 mmHg 79%
    03:00 +15°C° 0 mm 1 mps 762 mmHg 79%
    04:00 +14°C° 0 mm 1 mps 762 mmHg 80%
    05:00 +14°C° 0 mm 1 mps 762 mmHg 80%
    06:00 +14°C° 0 mm 1 mps 763 mmHg 80%
    07:00 +14°C° 0 mm 1 mps 763 mmHg 80%
    08:00 +16°C° 0 mm 1 mps 763 mmHg 75%
    09:00 +19°C° 0 mm 1 mps 763 mmHg 69%
    10:00 +21°C° 0 mm 1 mps 763 mmHg 63%
    11:00 +22°C° 0 mm 1 mps 763 mmHg 63%
    12:00 +22°C° 0 mm 1 mps 763 mmHg 62%
    13:00 +22°C° 0 mm 1 mps 763 mmHg 61%
    14:00 +22°C° 0 mm 1 mps 763 mmHg 65%
    15:00 +21°C° 0 mm 1 mps 763 mmHg 69%
    16:00 +21°C° 0 mm 1 mps 762 mmHg 74%
    17:00 +19°C° 0 mm 1 mps 763 mmHg 79%
    18:00 +18°C° 0 mm 1 mps 763 mmHg 85%
    19:00 +16°C° 0 mm 1 mps 764 mmHg 91%
    20:00 +16°C° 0 mm 1 mps 764 mmHg 91%
    21:00 +15°C° 0 mm 1 mps 764 mmHg 92%
    22:00 +15°C° 0 mm 2 mps 764 mmHg 93%
    23:00 +15°C° 0 mm 2 mps 764 mmHg 92%

    Tomorrow, 21 October, Saturday

    Time Temperature Precipitation Wind Pressure Humidity
    00:00 +15°C° 0 mm 2 mps 764 mmHg 92%
    01:00 +15°C° 0 mm 2 mps 764 mmHg 92%
    02:00 +15°C° 0 mm 2 mps 764 mmHg 92%
    03:00 +15°C° 0 mm 2 mps 764 mmHg 92%
    04:00 +15°C° 0 mm 2 mps 764 mmHg 92%
    05:00 +15°C° 0 mm 2 mps 764 mmHg 91%
    06:00 +15°C° 0 mm 2 mps 764 mmHg 91%
    07:00 +15°C° 0 mm 2 mps 764 mmHg 90%
    08:00 +17°C° 0 mm 2 mps 764 mmHg 84%
    09:00 +18°C° 0 mm 2 mps 764 mmHg 77%
    10:00 +20°C° 0 mm 2 mps 764 mmHg 71%
    11:00 +20°C° 0 mm 2 mps 764 mmHg 71%
    12:00 +21°C° 0 mm 2 mps 763 mmHg 72%
    13:00 +22°C° 0 mm 1 mps 763 mmHg 72%
    14:00 +22°C° 0 mm 1 mps 763 mmHg 75%
    15:00 +21°C° 0 mm 1 mps 763 mmHg 79%
    16:00 +21°C° 0 mm 1 mps 763 mmHg 83%
    17:00 +20°C° 0 mm 1 mps 763 mmHg 87%
    18:00 +19°C° 0 mm 1 mps 763 mmHg 91%
    19:00 +18°C° 0 mm 1 mps 763 mmHg 95%
    20:00 +18°C° 0 mm 1 mps 763 mmHg 95%
    21:00 +17°C° 0 mm 2 mps 763 mmHg 95%
    22:00 +17°C° 0 mm 2 mps 763 mmHg 95%
    23:00 +17°C° 0 mm 2 mps 762 mmHg 95%

    Day after tomorrow, 22 October, Sunday

    Time Temperature Precipitation Wind Pressure Humidity
    00:00 +17°C° 0 mm 2 mps 762 mmHg 95%
    01:00 +17°C° 0 mm 2 mps 762 mmHg 94%
    02:00 +17°C° 0 mm 2 mps 762 mmHg 94%
    03:00 +17°C° 0 mm 2 mps 761 mmHg 94%
    04:00 +17°C° 0 mm 2 mps 761 mmHg 94%
    05:00 +17°C° 0.1 mm 3 mps 760 mmHg 93%
    06:00 +17°C° 0.1 mm 3 mps 760 mmHg 93%
    07:00 +17°C° 0.1 mm 4 mps 760 mmHg 92%
    08:00 +17°C° 0.9 mm 4 mps 759 mmHg 93%
    09:00 +18°C° 0.9 mm 4 mps 759 mmHg 93%
    10:00 +17°C° 0.9 mm 5 mps 759 mmHg 93%
    11:00 +17°C° 1.2 mm 5 mps 758 mmHg 92%
    12:00 +17°C° 1.2 mm 5 mps 758 mmHg 91%
    13:00 +19°C° 1.2 mm 5 mps 757 mmHg 91%
    14:00 +19°C° 1 mm 5 mps 757 mmHg 89%
    15:00 +19°C° 1 mm 5 mps 756 mmHg 88%
    16:00 +19°C° 1 mm 5 mps 756 mmHg 86%
    17:00 +17°C° 0.5 mm 5 mps 756 mmHg 86%
    18:00 +16°C° 0.5 mm 6 mps 757 mmHg 85%
    19:00 +15°C° 0.5 mm 6 mps 757 mmHg 85%
    20:00 +15°C° 1.2 mm 7 mps 757 mmHg 83%
    21:00 +13°C° 1.2 mm 8 mps 757 mmHg 82%
    22:00 +13°C° 1.2 mm 8 mps 758 mmHg 80%
    23:00 +12°C° 1.6 mm 8 mps 758 mmHg 82%

    23 October, Monday

    Time Temperature Precipitation Wind Pressure Humidity
    00:00 +12°C° 1.6 mm 8 mps 758 mmHg 83%
    01:00 +11°C° 1.6 mm 8 mps 758 mmHg 84%
    02:00 +11°C° 0.5 mm 9 mps 758 mmHg 84%
    03:00 +10°C° 0.5 mm 9 mps 758 mmHg 83%
    04:00 +10°C° 0.5 mm 9 mps 758 mmHg 83%
    05:00 +10°C° 0.4 mm 8 mps 759 mmHg 83%
    06:00 +10°C° 0.4 mm 7 mps 759 mmHg 82%
    07:00 +10°C° 0.4 mm 6 mps 759 mmHg 82%
    08:00 +10°C° 0.1 mm 5 mps 760 mmHg 80%
    09:00 +12°C° 0.1 mm 4 mps 760 mmHg 79%
    10:00 +12°C° 0.1 mm 4 mps 760 mmHg 77%
    11:00 +13°C° 0 mm 4 mps 760 mmHg 74%
    12:00 +14°C° 0 mm 4 mps 760 mmHg 71%
    13:00 +15°C° 0 mm 4 mps 759 mmHg 67%
    14:00 +16°C° 0 mm 3 mps 760 mmHg 69%
    15:00 +16°C° 0 mm 3 mps 760 mmHg 71%
    16:00 +15°C° 0 mm 2 mps 760 mmHg 72%
    17:00 +14°C° 0 mm 2 mps 760 mmHg 76%
    18:00 +13°C° 0 mm 2 mps 760 mmHg 79%
    19:00 +12°C° 0 mm 2 mps 761 mmHg 83%
    20:00 +12°C° 0 mm 2 mps 761 mmHg 82%
    21:00 +12°C° 0 mm 2 mps 761 mmHg 81%
    22:00 +12°C° 0 mm 2 mps 761 mmHg 80%
    23:00 +12°C° 0 mm 2 mps 761 mmHg 78%

    24 October, Tuesday

    Time Temperature Precipitation Wind Pressure Humidity
    00:00 +12°C° 0 mm 2 mps 761 mmHg 77%
    01:00 +11°C° 0 mm 1 mps 761 mmHg 76%
    02:00 +10°C° 0 mm 2 mps 761 mmHg 76%
    03:00 +10°C° 0 mm 2 mps 761 mmHg 76%
    04:00 +10°C° 0 mm 2 mps 761 mmHg 76%
    05:00 +10°C° 0 mm 2 mps 761 mmHg 75%
    06:00 +10°C° 0 mm 2 mps 761 mmHg 74%
    07:00 +10°C° 0 mm 2 mps 762 mmHg 73%
    08:00 +13°C° 0 mm 2 mps 762 mmHg 67%
    09:00 +15°C° 0 mm 2 mps 762 mmHg 61%
    10:00 +18°C° 0 mm 2 mps 762 mmHg 55%
    11:00 +18°C° 0 mm 2 mps 762 mmHg 53%
    12:00 +19°C° 0 mm 3 mps 762 mmHg 50%
    13:00 +20°C° 0 mm 3 mps 762 mmHg 47%
    14:00 +19°C° 0 mm 3 mps 762 mmHg 51%
    15:00 +19°C° 0 mm 2 mps 762 mmHg 56%
    16:00 +18°C° 0 mm 2 mps 762 mmHg 60%
    17:00 +17°C° 0 mm 3 mps 763 mmHg 63%
    18:00 +14°C° 0 mm 3 mps 764 mmHg 66%
    19:00 +13°C° 0 mm 3 mps 764 mmHg 69%
    20:00 +13°C° 0 mm 3 mps 765 mmHg 70%
    21:00 +13°C° 0 mm 4 mps 765 mmHg 70%
    22:00 +12°C° 0 mm 4 mps 766 mmHg 70%
    23:00 +12°C° 0 mm 4 mps 766 mmHg 70%

    25 October, Wednesday

    Time Temperature Precipitation Wind Pressure Humidity
    00:00 +12°C° 0 mm 4 mps 766 mmHg 71%
    01:00 +12°C° 0 mm 4 mps 767 mmHg 71%
    02:00 +11°C° 0 mm 4 mps 767 mmHg 71%
    03:00 +11°C° 0 mm 3 mps 767 mmHg 72%
    04:00 +11°C° 0 mm 3 mps 767 mmHg 73%
    05:00 +11°C° 0 mm 3 mps 767 mmHg 74%
    06:00 +11°C° 0 mm 3 mps 767 mmHg 75%
    07:00 +11°C° 0 mm 3 mps 768 mmHg 76%
    08:00 +13°C° 0 mm 3 mps 768 mmHg 69%
    09:00 +16°C° 0 mm 3 mps 768 mmHg 62%
    10:00 +18°C° 0 mm 3 mps 768 mmHg 55%
    11:00 +18°C° 0 mm 3 mps 768 mmHg 52%
    12:00 +19°C° 0 mm 3 mps 768 mmHg 48%
    13:00 +20°C° 0 mm 3 mps 767 mmHg 45%
    14:00 +19°C° 0 mm 4 mps 767 mmHg 49%
    15:00 +19°C° 0 mm 4 mps 767 mmHg 53%
    16:00 +18°C° 0 mm 4 mps 767 mmHg 57%
    17:00 +17°C° 0 mm 4 mps 768 mmHg 61%
    18:00 +14°C° 0 mm 4 mps 768 mmHg 64%
    19:00 +13°C° 0 mm 4 mps 769 mmHg 68%
    20:00 +13°C° 0 mm 4 mps 769 mmHg 68%
    21:00 +12°C° 0 mm 5 mps 769 mmHg 67%
    22:00 +12°C° 0 mm 5 mps 769 mmHg 67%
    23:00 +12°C° 0 mm 5 mps 769 mmHg 67%
    Show more